Location: Bruderhein
(53.8035°N, 112.9265°W)
Time: 11:40:18
(UTC+00:00)

deb Agena D - Pass Details

Date: 12 December 2023
Orbit: 760 x 888 km, 99.8° (Epoch: 05 March)

Event Time Altitude Azimuth Distance (km) Brightness Sun altitude
Rises 14:46:12 0° 183° (S) 3,469 ? -7.4°
Reaches altitude 10° 14:48:45 10° 190° (S) 2,523 ? -7.1°
Maximum altitude 14:54:03 42° 260° (W) 1,211 ? -6.4°
Drops below altitude 10° 14:59:14 10° 331° (NNW) 2,469 ? -5.7°
Sets 15:01:43 0° 339° (NNW) 3,387 ? -5.4°
